Presure
159 137 151 167 143 142 153 157 144 159 153 151 147 146 147 144 163 164 153 150 141 153 175 141 179 179 146 172 167 162 187 198 197 197 222 228 217 212 201 194 203 204 206 214 190 203 213
141 162 165 161 149 148 150 158 162 162 139 143 156 150 155 168 141 165 160 167 158 159 135 159 157 155 166 148 182 156 164 160 180 192 190 201 245 231 217 209 200 196 190 182 196 211 211
163 170 159 164 162 154 152 151 142 146 158 153 156 132 155 138 162 147 133 145 171 144 172 147 169 138 145 179 172 147 172 168 166 155 167 191 194 198 256 239 224 211 202 195 191 187 183
159 184 162 164 171 160 162 156 157 157 147 135 162 169 161 134 161 137 153 150 156 162 170 160 158 158 168 144 161 161 157 178 166 165 159 177 187 187 186 194 193 201 234 235 222 208 198
141 142 159 154 149 149 148 146 159 140 146 138 159 152 157 143 155 147 134 149 155 158 155 163 162 158 159 180 177 157 156 157 179 160 171 160 183 160 172 172 191 177 180 185 193 207 250
159 148 153 148 149 145 151 151 146 146 153 155 145 147 144 136 156 157 162 122 130 147 160 158 171 149 163 147 152 163 183 147 168 178 177 144 186 205 176 162 199 192 174 193 186 195 184
135 154 145 151 143 144 149 149 154 155 148 151 144 148 140 158 161 158 153 127 160 161 169 158 167 132 157 162 165 161 168 167 139 150 179 153 181 172 156 182 175 200 156 175 175 178 179
153 152 150 158 152 152 151 152 153 151 152 152 161 163 159 154 148 148 152 139 160 158 161 161 135 151 171 148 167 154 170 165 169 170 182 170 166 178 172 169 149 186 203 200 183 190 197
151 144 152 147 145 142 142 150 151 150 143 145 148 156 158 142 148 155 156 151 153 149 156 159 159 168 136 149 151 172 149 164 162 156 168 169 162 142 156 178 167 176 162 196 199 179 169
151 154 147 155 152 135 132 139 141 140 143 144 145 147 151 140 149 153 151 151 154 136 159 163 162 159 171 145 148 174 160 174 147 140 142 161 165 165 159 174 177 168 180 179 179 196 177
150 148 159 148 147 137 150 155 155 146 141 148 146 150 155 135 155 155 138 156 157 160 157 158 148 164 171 170 131 137 165 168 143 149 163 164 155 166 163 164 174 176 177 185 179 190 195
152 156 140 149 151 147 147 137 145 159 144 144 155 159 158 157 154 148 154 159 143 160 164 169 160 165 175 161 176 156 147 154 160 162 156 163 150 150 168 164 171 179 178 172 192 177 196
162 163 153 152 142 131 140 146 153 148 152 157 160 161 143 147 139 147 160 163 154 156 159 148 161 162 166 159 170 147 153 172 168 147 169 164 161 150 161 161 162 177 178 183 182 184 181
151 156 164 149 151 151 147 146 147 148 150 151 148 150 154 157 161 144 161 153 157 148 158 164 155 171 169 160 167 161 154 148 151 165 163 151 158 172 161 174 182 174 166 171 174 185 178
164 161 160 165 162 143 150 150 150 154 154 162 154 159 163 153 143 161 159 154 151 156 153 166 153 161 159 158 166 137 172 158 161 168 161 174 145 164 172 180 178 185 177 174 186 184 181
174 168 160 151 152 165 160 155 157 154 155 149 148 154 156 156 157 157 160 156 160 156 147 164 146 157 155 160 161 167 161 167 163 171 141 165 164 167 173 186 188 180 185 174 184 172 189
144 148 167 159 164 158 157 161 163 156 142 149 158 152 155 155 149 144 148 150 149 157 161 151 152 157 158 162 161 163 167 161 172 167 147 140 183 178 178 183 184 180 182 186 181 177 190
172 161 169 161 162 161 158 160 168 155 157 161 160 152 150 144 142 154 158 145 156 166 170 153 158 142 160 157 174 162 157 164 159 168 169 185 185 180 183 180 176 178 183 205 188 186 191
182 166 162 163 165 157 168 177 178 171 172 170 171 136 164 143 167 163 174 165 163 151 153 165 158 162 169 165 163 167 168 177 172 174 179 186 187 196 177 202 203 191 211 213 201 198 197
160 171 165 173 176 174 160 175 161 166 182 181 182 183 172 165 163 170 145 168 170 167 173 173 166 166 166 171 173 175 175 166 178 189 186 193 193 198 219 195 206 205 213 215 206 205 213
168 173 187 164 176 153 161 155 173 166 155 161 163 166 176 171 169 173 177 170 161 175 169 170 171 173 181 181 183 178 186 199 184 192 204 199 210 213 203 209 207 211 203 206 203 196 213
189 168 184 168 145 196 179 158 179 160 168 166 177 167 142 175 173 168 166 170 174 177 162 167 179 172 176 159 180 195 184 195 236 208 227 209 204 196 204 213 201 223 194 206 212 206 239
199 189 191 199 162 187 172 180 166 170 175 162 187 175 173 169 167 170 168 174 167 173 177 174 176 170 179 189 196 196 216 186 209 188 201 201 207 214 215 206 218 223 214 210 223 209 208
194 193 191 177 185 187 186 187 184 175 184 178 176 171 175 174 161 162 170 176 173 169 184 182 183 187 182 189 181 199 186 187 189 211 208 213 192 218 200 207 246 229 232 219 219 211 218
189 180 190 185 194 182 178 183 172 176 184 174 177 181 181 178 179 181 186 184 185 179 184 180 194 185 211 203 191 195 188 189 199 192 231 207 192 231 207 196 236 228 225 227 222 220 228
186 193 187 186 183 196 185 188 190 178 169 174 182 187 187 186 187 186 181 190 191 188 195 187 213 213 229 206 187 221 220 195 246 230 205 273 259 261 269 269 269 267 243 260 229 262 269
208 185 182 216 177 176 186 181 184 189 186 184 180 184 182 180 181 188 193 207 229 228 196 212 190 199 230 217 222 217 295 234 248 287 286 286 286 271 290 293 297 276 272 265 269 262 262
194 203 219 197 196 200 182 181 177 186 191 193 194 214 198 203 198 211 191 218 181 191 207 213 196 200 230 259 275 213 263 291 280 274 272 267 235 288 275 266 270 257 259 264 262 261 257
185 186 202 191 196 198 220 180 207 195 205 218 191 217 216 213 205 225 215 187 208 217 210 211 220 245 222 217 280 285 282 287 276 282 286 292 261 256 256 257 259 258 253 256 256 253 250
Wind_Speed
41 33 36 36 35 33 32 30 28 28 25 23 23 23 22 24 14 15 25 27 28 28 21 27 28 24 24 25 28 22 30 26 25 20 13 13 13 13 16 21 20 23 26 27 40 40 41
37 40 39 39 36 35 33 31 30 29 27 25 25 26 23 19 25 17 17 20 24 23 25 22 28 30 26 30 24 30 30 24 24 21 21 20 15 15 15 19 22 26 31 37 34 32 37
38 39 38 39 36 38 36 35 32 32 34 33 31 30 26 30 22 25 30 29 23 31 24 31 28 29 34 25 23 27 24 28 27 17 24 20 18 16 17 18 21 23 27 30 33 37 43
38 40 40 39 36 38 37 36 36 34 33 30 35 30 31 32 25 29 26 27 27 23 25 20 24 24 26 34 25 25 32 20 21 32 30 20 18 16 13 11 8 12 22 29 30 33 39
44 43 41 41 40 38 37 36 37 36 36 34 37 37 35 33 31 30 33 31 29 29 28 24 25 24 23 30 22 27 23 35 26 28 29 33 25 33 25 28 11 27 26 22 14 16 35
44 45 45 44 43 41 42 40 39 40 41 38 36 36 36 36 38 36 36 39 36 33 30 28 33 34 29 37 33 27 30 38 25 31 28 33 34 30 27 38 23 18 36 18 25 23 31
52 48 49 49 46 45 44 43 44 45 43 44 39 40 39 41 41 41 35 38 35 33 37 31 36 38 31 32 32 29 29 31 36 41 33 33 30 30 40 31 37 38 44 37 40 39 40
54 53 52 52 51 49 48 48 48 49 49 48 48 46 45 44 44 43 41 41 42 39 39 33 40 34 41 38 37 36 32 33 33 34 43 30 31 42 36 37 45 45 44 39 39 27 25
59 56 55 53 51 49 49 50 49 50 48 47 45 45 45 44 47 49 49 45 46 42 43 42 42 46 42 39 38 43 42 43 35 39 39 39 39 41 42 51 40 45 46 49 44 42 44
63 61 58 58 57 53 53 54 54 53 52 50 50 47 48 46 49 50 49 50 51 48 52 52 51 46 53 46 45 47 41 50 48 47 49 44 43 48 47 52 55 47 54 51 49 50 44
67 62 62 59 57 56 57 60 62 60 55 56 55 55 54 50 55 54 49 56 56 58 54 55 50 57 57 54 46 50 46 51 53 55 48 46 49 52 50 53 59 61 59 60 51 54 51
75 70 61 63 60 60 61 64 65 66 61 60 62 61 58 59 58 56 59 61 55 59 59 61 57 61 64 54 62 51 57 53 56 54 57 59 56 55 65 56 65 66 64 57 62 53 52
82 80 66 69 62 64 66 68 69 70 66 67 66 64 60 59 59 61 63 63 60 60 59 54 64 62 64 59 63 61 59 68 66 64 66 59 62 64 67 61 66 66 65 65 57 59 53
79 79 77 68 70 71 72 73 72 71 69 68 64 65 67 66 66 65 67 64 65 60 66 71 64 75 72 63 68 60 63 66 65 68 64 65 65 77 68 78 78 67 64 67 64 65 56
93 85 78 80 78 72 76 79 77 75 77 78 71 73 74 68 66 74 73 69 66 69 67 78 68 74 73 70 76 64 83 72 74 81 69 82 69 74 84 87 83 85 76 76 82 70 60
92 95 85 75 77 83 83 81 80 77 79 72 73 76 77 75 76 75 79 77 81 76 69 80 69 77 77 82 80 83 79 86 83 91 67 77 74 83 89 93 92 86 86 78 85 74 76
78 81 98 90 93 83 81 84 84 84 77 80 83 78 83 80 74 73 75 76 78 82 82 79 80 80 83 87 86 85 89 84 96 93 75 70 96 92 94 94 93 89 87 88 82 81 89
98 91 101 97 95 84 78 83 88 81 87 88 87 80 82 77 76 87 91 79 89 92 92 84 87 79 87 85 98 90 87 94 89 99 100 107 97 93 93 92 90 89 91 104 91 89 92
104 98 98 100 100 86 96 101 100 95 93 93 95 68 93 78 95 95 97 92 90 87 87 96 90 96 103 96 93 101 107 110 106 110 110 110 101 103 91 106 102 94 101 101 98 98 94
85 99 93 104 106 104 94 106 88 94 102 100 99 98 95 89 93 98 83 97 98 98 104 103 97 100 102 111 111 109 111 101 111 113 112 109 105 107 110 98 96 92 92 95 95 93 102
100 110 101 91 111 83 95 86 106 96 75 85 86 97 104 99 96 101 102 99 87 106 103 107 112 110 115 113 114 113 115 117 105 113 117 113 111 105 101 103 95 92 85 89 90 92 93
115 104 118 102 74 103 112 89 111 88 102 95 106 95 75 107 106 97 98 104 108 113 92 108 116 108 112 92 114 123 106 116 111 113 114 111 101 91 92 102 88 92 81 93 95 95 99
103 115 105 106 96 113 107 109 96 101 110 95 109 109 109 106 105 111 109 116 105 115 117 115 117 105 117 123 123 126 117 102 118 104 114 114 116 112 106 98 101 98 100 99 98 93 92
105 113 115 113 115 110 112 111 111 112 109 112 113 108 115 116 94 101 109 124 121 104 126 126 124 128 116 126 109 95 108 107 109 113 116 113 96 108 95 101 98 97 99 94 96 93 98
111 107 112 114 112 113 115 112 110 108 113 114 117 115 116 122 123 121 120 123 124 121 123 123 131 120 112 126 116 123 110 111 112 109 105 103 106 112 103 93 99 98 97 97 93 93 93
111 113 113 112 105 112 109 111 115 117 107 113 116 112 115 119 120 122 120 127 129 125 131 123 127 124 110 122 109 113 113 106 105 103 99 93 99 100 98 98 92 88 95 85 93 81 80
109 114 107 102 107 102 112 107 114 117 117 119 115 118 117 114 115 123 128 125 110 111 110 122 113 117 114 118 113 112 82 110 102 84 83 83 82 88 81 79 70 73 75 78 75 79 78
108 106 101 110 120 118 111 107 101 115 124 124 125 120 124 129 128 122 114 112 108 117 119 115 118 115 118 97 92 108 91 76 77 81 80 81 75 71 74 76 71 76 75 73 74 74 75
110 111 109 110 115 116 103 98 114 128 116 109 102 109 110 113 117 111 112 113 119 117 112 116 116 103 116 114 85 82 78 73 74 70 70 69 74 78 78 76 76 72 72 70 70 72 73
Wind_Direction
252 258 264 264 266 267 271 269 276 277 277 287 285 291 296 300 299 297 295 306 315 315 347 323 4 7 329 353 347 348 16 26 19 14 343 310 301 278 255 249 251 245 244 246 246 242 240
255 256 259 263 261 266 269 270 273 274 277 281 288 288 292 311 292 317 296 313 316 311 311 317 334 332 341 329 6 336 338 335 7 20 9 19 309 294 284 270 262 256 249 248 253 255 249
258 261 260 258 259 263 267 268 268 277 279 287 285 278 290 288 302 295 295 297 333 303 340 310 338 314 322 355 337 327 340 339 331 319 331 9 18 14 306 285 279 275 270 263 258 256 252
259 260 257 256 256 258 261 267 271 273 278 275 287 292 290 279 297 284 302 301 304 316 328 311 327 314 335 314 325 328 323 344 336 322 323 328 345 334 341 346 323 342 287 275 270 265 262
255 258 255 260 261 262 265 270 269 272 277 277 284 285 290 278 296 281 282 298 304 308 300 313 316 304 307 342 334 317 323 314 353 312 325 320 330 313 310 310 314 289 285 282 285 299 273
258 257 257 261 263 265 266 269 272 275 278 282 278 283 282 273 296 295 297 286 288 297 303 305 315 295 315 296 305 312 341 306 315 344 332 311 345 341 293 303 319 286 289 276 272 283 272
256 256 258 260 263 266 268 271 273 275 277 280 278 283 275 292 293 294 294 275 301 300 314 301 312 294 301 310 316 302 319 318 302 302 338 312 340 314 300 319 309 324 298 296 279 277 273
255 255 256 258 261 264 266 270 272 275 276 280 284 285 285 289 289 292 293 282 302 301 306 304 291 294 315 293 315 299 315 314 321 318 338 314 307 334 306 298 293 331 321 309 291 277 288
255 256 257 259 260 261 264 267 268 270 273 276 279 284 284 282 288 291 294 292 294 291 302 305 303 309 289 289 293 311 294 312 302 301 322 315 297 296 303 329 300 319 296 319 305 285 275
258 258 258 260 261 264 266 268 267 268 271 274 275 277 278 277 284 287 287 290 294 284 303 307 306 297 307 285 293 313 293 320 293 292 294 308 314 310 296 320 323 303 320 316 310 307 283
256 256 256 258 260 263 268 269 269 271 273 277 277 279 282 276 285 288 280 293 295 299 298 301 291 303 306 307 288 291 304 308 292 290 307 308 295 314 307 306 318 316 314 315 307 309 303
258 257 255 258 258 261 264 267 271 273 273 275 276 279 281 283 284 284 289 290 284 294 298 302 300 304 307 299 309 297 289 294 298 302 295 305 292 295 312 303 311 313 312 303 311 301 309
257 258 255 258 258 260 262 266 268 269 272 274 276 279 277 278 279 282 288 290 286 291 295 286 300 301 302 296 307 284 286 313 309 289 309 304 300 292 304 297 301 309 309 308 307 304 301
257 259 258 256 258 261 263 263 266 269 272 275 276 278 281 282 285 281 288 286 290 285 296 299 295 305 305 297 305 296 287 287 292 301 297 291 297 308 295 305 309 303 293 297 295 300 296
256 259 260 259 259 257 260 263 267 272 276 278 281 284 286 281 277 287 286 287 287 293 294 297 294 302 299 296 304 287 307 292 298 305 294 307 292 299 304 308 305 306 302 298 304 298 292
253 256 259 256 259 260 262 265 268 272 274 274 276 280 281 282 285 286 289 287 290 291 288 296 288 297 295 298 299 303 300 303 300 305 288 297 296 300 304 305 302 300 300 294 299 288 299
257 258 258 259 261 259 261 263 263 267 269 272 275 278 281 282 281 280 282 285 287 290 290 289 289 292 295 299 298 299 300 298 302 300 293 289 302 302 300 300 298 297 299 298 291 290 299
253 257 258 260 262 263 261 263 263 264 267 270 271 273 275 276 278 281 283 284 287 288 289 286 290 286 293 291 296 297 293 298 295 299 300 300 299 297 296 296 295 295 296 297 294 293 296
254 255 257 261 263 265 267 269 270 269 268 269 270 279 274 279 277 279 280 282 283 283 285 288 288 291 295 294 293 296 296 298 298 299 299 298 298 299 294 298 295 294 295 294 294 294 297
258 257 255 256 257 262 267 268 270 273 274 276 278 277 278 277 279 280 281 284 283 285 287 290 290 292 294 295 296 296 297 295 297 297 296 296 298 298 298 297 295 295 295 291 292 294 289
258 257 257 261 260 265 265 269 268 270 275 276 277 277 278 279 280 282 283 285 283 288 290 291 292 293 294 294 295 295 297 297 295 297 296 296 298 296 296 298 297 295 295 295 290 288 291
251 259 257 260 258 259 261 267 263 270 272 276 274 276 269 281 283 284 284 288 290 289 288 291 291 291 292 291 294 298 295 298 293 298 296 299 300 295 299 298 296 296 291 294 293 290 284
249 252 255 251 263 259 265 263 268 270 273 276 272 277 279 281 283 284 284 285 287 289 290 291 291 291 293 296 298 299 295 298 299 300 300 299 297 294 294 296 294 294 293 293 290 288 288
247 249 251 255 255 256 258 260 263 267 269 271 274 276 276 276 282 283 283 283 286 288 288 290 292 293 294 295 295 290 295 296 298 294 295 293 292 291 293 295 286 289 288 288 287 289 290
250 252 251 252 253 256 260 260 265 266 266 269 271 272 274 275 277 279 280 281 283 285 288 290 291 291 287 292 294 293 293 294 294 294 290 288 291 290 292 289 289 289 288 285 285 287 285
251 252 254 256 259 259 259 262 262 264 269 269 270 273 274 276 278 279 283 283 283 284 286 289 288 286 289 289 290 292 290 291 294 291 291 279 280 281 282 284 284 285 282 284 286 285 282
250 252 255 257 259 262 261 263 264 266 268 268 271 273 274 276 279 280 283 284 285 286 287 285 289 291 292 290 291 293 295 294 295 289 289 290 290 287 288 287 287 283 282 282 281 282 280
251 251 255 256 257 258 262 263 267 267 268 271 272 273 274 276 279 280 284 286 288 287 286 288 285 289 293 299 299 294 297 295 292 290 288 288 290 286 285 286 284 284 284 282 283 282 284
250 253 252 257 258 259 264 267 266 266 271 272 276 274 276 275 280 283 282 285 287 287 290 291 291 294 292 293 298 296 297 297 292 294 291 289 287 286 284 285 285 285 285 285 284 284 284